EWG5LB EDDL-LGIR

Flight info

Callsign EWG5LB
Flight time 2h 57m
Altitude 37000
Route DODEN1T/23L DODEN Y853 BOMBI DCT DETEV DCT DINKU M867 XERUM DCT BAVAX DCT RADIZ DCT NEMEK DCT VRANA DCT PETAK DCT PINDO UL607 GIVIS/N0428F230 T514 XAVIS
Aircraft A319/M-SDE3FGHIRWY/LB1

Departure

Time 2026-05-05 12:37
Airport Düsseldorf Airport (EDDL)

Arrival

Time 2026-05-05 15:35
Airport Heraklion International Nikos Kazantzakis Airport (LGIR)
Time Latitude Longitude Altitude Speed Heading
2026-05-05 11:36 51.27888 6.76333 125 ft 0 kts 50°
2026-05-05 12:20 51.27886 6.76329 128 ft 3 kts 50°
2026-05-05 12:20 51.27869 6.76297 126 ft 4 kts 49°
2026-05-05 12:21 51.27852 6.76264 127 ft 4 kts 56°
2026-05-05 12:21 51.27841 6.76227 125 ft 4 kts 86°
2026-05-05 12:21 51.27841 6.76193 127 ft 4 kts 88°
2026-05-05 12:21 51.27839 6.76151 128 ft 4 kts 82°
2026-05-05 12:22 51.27834 6.76109 127 ft 4 kts 73°
2026-05-05 12:22 51.27824 6.76069 124 ft 4 kts 53°
2026-05-05 12:22 51.27806 6.76046 124 ft 3 kts
2026-05-05 12:22 51.27780 6.76045 127 ft 4 kts
2026-05-05 12:23 51.27762 6.76043 126 ft 0 kts
2026-05-05 12:26 51.27770 6.76043 129 ft 3 kts
2026-05-05 12:26 51.27808 6.76044 128 ft 8 kts
2026-05-05 12:26 51.27875 6.76046 128 ft 11 kts
2026-05-05 12:26 51.27965 6.76048 128 ft 14 kts 359°
2026-05-05 12:27 51.28076 6.76048 128 ft 18 kts
2026-05-05 12:27 51.28169 6.76105 129 ft 15 kts 52°
2026-05-05 12:27 51.28230 6.76232 128 ft 10 kts 53°
2026-05-05 12:27 51.28280 6.76337 126 ft 13 kts 52°
2026-05-05 12:28 51.28344 6.76470 124 ft 17 kts 52°
2026-05-05 12:28 51.28391 6.76569 124 ft 10 kts 53°
2026-05-05 12:28 51.28439 6.76670 126 ft 12 kts 52°
2026-05-05 12:28 51.28494 6.76785 125 ft 14 kts 52°
2026-05-05 12:29 51.28553 6.76910 128 ft 15 kts 53°
2026-05-05 12:29 51.28618 6.77047 128 ft 16 kts 53°
2026-05-05 12:29 51.28691 6.77200 128 ft 19 kts 52°
2026-05-05 12:29 51.28775 6.77375 129 ft 21 kts 52°
2026-05-05 12:30 51.28871 6.77576 129 ft 24 kts 52°
2026-05-05 12:30 51.28978 6.77798 129 ft 27 kts 53°
2026-05-05 12:30 51.29095 6.78049 131 ft 29 kts 52°
2026-05-05 12:30 51.29205 6.78277 139 ft 17 kts 53°
2026-05-05 12:31 51.29272 6.78418 145 ft 15 kts 53°
2026-05-05 12:31 51.29318 6.78516 149 ft 6 kts 53°
2026-05-05 12:31 51.29328 6.78537 150 ft 1 kts 51°
2026-05-05 12:31 51.29329 6.78539 150 ft 0 kts 50°
2026-05-05 12:32 51.29330 6.78539 150 ft 0 kts 50°
2026-05-05 12:32 51.29338 6.78551 151 ft 3 kts 40°
2026-05-05 12:32 51.29356 6.78567 152 ft 3 kts 23°
2026-05-05 12:32 51.29380 6.78574 152 ft 4 kts
2026-05-05 12:33 51.29387 6.78574 152 ft 1 kts 359°
2026-05-05 12:33 51.29401 6.78572 152 ft 3 kts 356°
2026-05-05 12:33 51.29425 6.78569 152 ft 5 kts 355°
2026-05-05 12:33 51.29440 6.78567 152 ft 0 kts 355°
2026-05-05 12:36 51.29450 6.78566 152 ft 4 kts 355°
2026-05-05 12:36 51.29498 6.78559 152 ft 10 kts 355°
2026-05-05 12:36 51.29553 6.78539 153 ft 4 kts 288°
2026-05-05 12:36 51.29541 6.78516 152 ft 0 kts 234°
2026-05-05 12:37 51.29516 6.78460 150 ft 27 kts 234°
2026-05-05 12:37 51.29225 6.77845 134 ft 108 kts 232°
2026-05-05 12:37 51.28636 6.76612 198 ft 161 kts 236°
2026-05-05 12:37 51.27985 6.75218 853 ft 156 kts 236°
2026-05-05 12:38 51.27347 6.73846 1419 ft 156 kts 237°
2026-05-05 12:38 51.26670 6.72385 1642 ft 174 kts 235°
2026-05-05 12:38 51.25905 6.70731 1856 ft 196 kts 235°
2026-05-05 12:38 51.25041 6.68875 2113 ft 222 kts 234°
2026-05-05 12:39 51.24041 6.66826 2475 ft 247 kts 227°
2026-05-05 12:39 51.22627 6.65058 2905 ft 272 kts 207°
2026-05-05 12:39 51.20754 6.64099 3323 ft 297 kts 187°
2026-05-05 12:39 51.18615 6.64183 3669 ft 321 kts 169°
2026-05-05 12:40 51.16492 6.65478 4276 ft 332 kts 149°
2026-05-05 12:40 51.14734 6.67881 5026 ft 338 kts 129°
2026-05-05 12:40 51.13591 6.71159 5870 ft 343 kts 110°
2026-05-05 12:40 51.13237 6.74933 6638 ft 350 kts 90°
2026-05-05 12:41 51.13368 6.78818 7396 ft 353 kts 88°
2026-05-05 12:41 51.13524 6.82730 8155 ft 356 kts 88°
2026-05-05 12:41 51.13681 6.86630 8887 ft 359 kts 89°
2026-05-05 12:41 51.13837 6.90616 9635 ft 362 kts 88°
2026-05-05 12:42 51.13991 6.94636 10302 ft 365 kts 89°
2026-05-05 12:42 51.14138 6.98694 10920 ft 369 kts 89°
2026-05-05 12:42 51.13905 7.02759 11511 ft 370 kts 106°
2026-05-05 12:42 51.12876 7.06499 12119 ft 371 kts 124°
2026-05-05 12:43 51.11306 7.09773 12722 ft 373 kts 130°
2026-05-05 12:43 51.09679 7.13009 13348 ft 377 kts 130°
2026-05-05 12:43 51.08026 7.16270 13937 ft 380 kts 130°
2026-05-05 12:43 51.06361 7.19552 14501 ft 383 kts 130°
2026-05-05 12:44 51.04700 7.22828 15051 ft 387 kts 130°
2026-05-05 12:44 51.03008 7.26166 15618 ft 390 kts 130°
2026-05-05 12:44 51.01300 7.29536 16199 ft 393 kts 130°
2026-05-05 12:44 50.99581 7.32928 16758 ft 397 kts 130°
2026-05-05 12:45 50.97843 7.36361 17338 ft 400 kts 130°
2026-05-05 12:45 50.96089 7.39812 17912 ft 404 kts 130°
2026-05-05 12:45 50.94316 7.43286 18411 ft 407 kts 130°
2026-05-05 12:45 50.92529 7.46780 18897 ft 410 kts 130°
2026-05-05 12:46 50.90751 7.50249 19373 ft 412 kts 130°
2026-05-05 12:46 50.88943 7.53776 19853 ft 414 kts 131°
2026-05-05 12:46 50.87124 7.57325 20301 ft 416 kts 131°
2026-05-05 12:46 50.85291 7.60901 20754 ft 419 kts 131°
2026-05-05 12:47 50.83454 7.64487 21194 ft 421 kts 131°
2026-05-05 12:47 50.81603 7.68094 21612 ft 423 kts 131°
2026-05-05 12:47 50.79739 7.71718 22017 ft 426 kts 131°
2026-05-05 12:47 50.77864 7.75355 22427 ft 428 kts 131°
2026-05-05 12:48 50.75981 7.79001 22832 ft 430 kts 131°
2026-05-05 12:48 50.74109 7.82622 23215 ft 432 kts 131°
2026-05-05 12:48 50.72205 7.86309 23569 ft 434 kts 131°
2026-05-05 12:48 50.70288 7.90015 23884 ft 437 kts 131°
2026-05-05 12:49 50.68362 7.93727 24203 ft 439 kts 132°
2026-05-05 12:49 50.66418 7.97458 24493 ft 441 kts 132°
2026-05-05 12:49 50.64462 8.01199 24789 ft 444 kts 132°
2026-05-05 12:49 50.62491 8.04962 25094 ft 446 kts 132°
2026-05-05 12:50 50.60482 8.08680 25367 ft 446 kts 136°
2026-05-05 12:50 50.58240 8.11941 25677 ft 445 kts 143°
2026-05-05 12:50 50.55857 8.15064 26014 ft 446 kts 143°
2026-05-05 12:50 50.53470 8.18187 26318 ft 447 kts 143°
2026-05-05 12:51 50.51073 8.21322 26611 ft 449 kts 143°
2026-05-05 12:51 50.48675 8.24461 26901 ft 450 kts 143°
2026-05-05 12:51 50.46263 8.27617 27179 ft 452 kts 143°
2026-05-05 12:51 50.43847 8.30773 27485 ft 453 kts 143°
2026-05-05 12:52 50.41431 8.33923 27921 ft 451 kts 144°
2026-05-05 12:52 50.39051 8.37024 28307 ft 450 kts 144°
2026-05-05 12:52 50.36648 8.40152 28729 ft 449 kts 144°
2026-05-05 12:52 50.34247 8.43267 29157 ft 447 kts 144°
2026-05-05 12:53 50.31857 8.46361 29625 ft 445 kts 144°
2026-05-05 12:53 50.29474 8.49440 30072 ft 443 kts 144°
2026-05-05 12:53 50.27098 8.52509 30469 ft 441 kts 144°
2026-05-05 12:53 50.24739 8.55553 30855 ft 440 kts 145°
2026-05-05 12:54 50.20062 8.61577 31640 ft 437 kts 145°
2026-05-05 12:54 50.17722 8.64587 32048 ft 435 kts 145°
2026-05-05 12:54 50.15389 8.67588 32452 ft 434 kts 146°
2026-05-05 12:55 50.13069 8.70567 32852 ft 432 kts 146°
2026-05-05 12:55 50.10751 8.73535 33261 ft 431 kts 146°
2026-05-05 12:55 50.08432 8.76478 33664 ft 427 kts 148°
2026-05-05 12:55 50.06001 8.79042 34114 ft 420 kts 153°
2026-05-05 12:56 50.03538 8.81473 34459 ft 418 kts 153°
2026-05-05 12:56 50.01074 8.83879 34752 ft 419 kts 153°
2026-05-05 12:56 49.98686 8.86497 35016 ft 425 kts 142°
2026-05-05 12:56 49.96829 8.90058 35245 ft 438 kts 125°
2026-05-05 12:57 49.95682 8.94504 35480 ft 451 kts 108°
2026-05-05 12:57 49.95121 8.99328 35716 ft 456 kts 104°
2026-05-05 12:57 49.94634 9.04187 35966 ft 456 kts 104°
2026-05-05 12:57 49.93853 9.08904 36204 ft 447 kts 116°
2026-05-05 12:58 49.92738 9.13412 36426 ft 447 kts 116°
2026-05-05 12:58 49.91613 9.17914 36643 ft 448 kts 116°
2026-05-05 12:58 49.90494 9.22354 36806 ft 448 kts 116°
2026-05-05 12:59 49.88208 9.31340 36835 ft 447 kts 116°
2026-05-05 12:59 49.85916 9.40300 36835 ft 447 kts 116°
2026-05-05 13:00 49.82121 9.53422 36837 ft 440 kts 129°
2026-05-05 13:01 49.75947 9.63502 36840 ft 431 kts 141°
2026-05-05 13:01 49.73760 9.66665 36835 ft 431 kts 141°
2026-05-05 13:01 49.69393 9.72999 36834 ft 430 kts 141°
2026-05-05 13:02 49.65025 9.79318 36827 ft 430 kts 141°
2026-05-05 13:02 49.60649 9.85618 36831 ft 430 kts 141°
2026-05-05 13:03 49.56299 9.91862 36812 ft 430 kts 141°
2026-05-05 13:03 49.51915 9.98141 36811 ft 431 kts 141°
2026-05-05 13:04 49.47524 10.04417 36824 ft 431 kts 141°
2026-05-05 13:04 49.43129 10.10686 36832 ft 431 kts 141°
2026-05-05 13:05 49.38728 10.16940 36842 ft 431 kts 141°
2026-05-05 13:05 49.34356 10.23132 36828 ft 431 kts 141°
2026-05-05 13:06 49.29950 10.29365 36820 ft 431 kts 142°
2026-05-05 13:06 49.25539 10.35585 36819 ft 431 kts 141°
2026-05-05 13:07 49.20748 10.40943 36836 ft 425 kts 153°
2026-05-05 13:07 49.15668 10.45570 36837 ft 426 kts 153°
2026-05-05 13:08 49.10610 10.50168 36845 ft 426 kts 153°
2026-05-05 13:08 49.05521 10.54787 36845 ft 426 kts 153°
2026-05-05 13:09 49.00421 10.59402 36838 ft 426 kts 153°
2026-05-05 13:09 48.95314 10.64001 36812 ft 427 kts 153°
2026-05-05 13:10 48.90199 10.68601 36818 ft 427 kts 153°
2026-05-05 13:10 48.85115 10.73161 36811 ft 427 kts 153°
2026-05-05 13:11 48.80234 10.78351 36815 ft 434 kts 140°
2026-05-05 13:11 48.76147 10.85153 36800 ft 437 kts 136°
2026-05-05 13:12 48.72077 10.91987 36794 ft 437 kts 136°
2026-05-05 13:12 48.67985 10.98809 36783 ft 438 kts 136°
2026-05-05 13:13 48.63919 11.05584 36786 ft 438 kts 136°
2026-05-05 13:13 48.59816 11.12401 36790 ft 439 kts 136°
2026-05-05 13:14 48.55707 11.19217 36790 ft 439 kts 136°
2026-05-05 13:14 48.51596 11.26024 36783 ft 439 kts 136°
2026-05-05 13:15 48.47474 11.32824 36762 ft 440 kts 136°
2026-05-05 13:15 48.43369 11.39591 36774 ft 441 kts 136°
2026-05-05 13:16 48.39226 11.46403 36778 ft 442 kts 136°
2026-05-05 13:16 48.35071 11.53217 36784 ft 442 kts 136°
2026-05-05 13:17 48.30899 11.60020 36224 ft 445 kts 136°
2026-05-05 13:17 48.28818 11.63401 35540 ft 448 kts 136°
2026-05-05 13:17 48.26702 11.66839 34980 ft 448 kts 137°
2026-05-05 13:18 48.24531 11.70188 34781 ft 447 kts 139°
2026-05-05 13:18 48.22283 11.73397 34806 ft 447 kts 141°
2026-05-05 13:18 48.17649 11.79606 34803 ft 447 kts 142°
2026-05-05 13:19 48.13001 11.85784 34796 ft 447 kts 141°
2026-05-05 13:19 48.08429 11.92001 34790 ft 447 kts 141°
2026-05-05 13:20 48.03843 11.98298 34771 ft 447 kts 141°
2026-05-05 13:20 47.99246 12.04586 34756 ft 449 kts 141°
2026-05-05 13:21 47.94623 12.10867 34761 ft 450 kts 141°
2026-05-05 13:21 47.90006 12.17107 34763 ft 451 kts 141°
2026-05-05 13:22 47.85353 12.23388 34769 ft 452 kts 141°
2026-05-05 13:22 47.80691 12.29668 34770 ft 452 kts 141°
2026-05-05 13:23 47.76028 12.35934 34770 ft 452 kts 141°
2026-05-05 13:23 47.71350 12.42190 34771 ft 453 kts 141°
2026-05-05 13:24 47.66702 12.48412 34778 ft 453 kts 141°
2026-05-05 13:24 47.62021 12.54673 34784 ft 453 kts 141°
2026-05-05 13:25 47.57417 12.61079 34781 ft 454 kts 140°
2026-05-05 13:25 47.52883 12.67610 34769 ft 455 kts 139°
2026-05-05 13:26 47.48355 12.74085 34778 ft 456 kts 140°
2026-05-05 13:26 47.43750 12.80564 34785 ft 458 kts 140°
2026-05-05 13:27 47.39126 12.87034 34807 ft 458 kts 140°
2026-05-05 13:27 47.34493 12.93507 34809 ft 459 kts 140°
2026-05-05 13:28 47.29888 12.99934 34832 ft 459 kts 140°
2026-05-05 13:28 47.25246 13.06405 34835 ft 459 kts 140°
2026-05-05 13:29 47.20602 13.12874 34865 ft 460 kts 140°
2026-05-05 13:29 47.15947 13.19329 34872 ft 460 kts 140°
2026-05-05 13:30 47.11319 13.25723 34893 ft 460 kts 140°
2026-05-05 13:30 47.06660 13.32152 34885 ft 460 kts 140°
2026-05-05 13:31 47.02000 13.38567 34891 ft 460 kts 140°
2026-05-05 13:31 46.97334 13.44964 34915 ft 460 kts 140°
2026-05-05 13:32 46.92662 13.51351 34915 ft 459 kts 140°
2026-05-05 13:32 46.88018 13.57688 34931 ft 460 kts 140°
2026-05-05 13:33 46.83346 13.64065 34924 ft 460 kts 140°
2026-05-05 13:33 46.78659 13.70438 34932 ft 460 kts 140°
2026-05-05 13:34 46.73963 13.76795 34922 ft 461 kts 140°
2026-05-05 13:34 46.69278 13.83119 34931 ft 463 kts 141°
2026-05-05 13:35 46.64544 13.89502 34918 ft 464 kts 140°
2026-05-05 13:35 46.59809 13.95881 34939 ft 464 kts 140°
2026-05-05 13:36 46.55064 14.02244 34939 ft 464 kts 140°
2026-05-05 13:36 46.50319 14.08604 34945 ft 464 kts 141°
2026-05-05 13:37 46.45601 14.14909 34945 ft 465 kts 141°
2026-05-05 13:37 46.40829 14.21258 34944 ft 466 kts 141°
2026-05-05 13:38 46.36049 14.27586 34991 ft 465 kts 141°
2026-05-05 13:38 46.31276 14.33907 35008 ft 465 kts 141°
2026-05-05 13:39 46.26537 14.40180 35012 ft 465 kts 141°
2026-05-05 13:39 46.21754 14.46489 35016 ft 466 kts 141°
2026-05-05 13:40 46.16969 14.52791 35019 ft 465 kts 140°
2026-05-05 13:40 46.12184 14.59074 35020 ft 465 kts 140°
2026-05-05 13:41 46.07428 14.65287 35016 ft 464 kts 141°
2026-05-05 13:41 46.02647 14.71531 35007 ft 464 kts 140°
2026-05-05 13:42 45.97858 14.77779 34978 ft 465 kts 141°
2026-05-05 13:42 45.93050 14.84022 34985 ft 466 kts 141°
2026-05-05 13:43 45.88279 14.90202 34990 ft 465 kts 141°
2026-05-05 13:43 45.83484 14.96419 34986 ft 465 kts 141°
2026-05-05 13:44 45.78682 15.02623 34991 ft 464 kts 141°
2026-05-05 13:44 45.73879 15.08795 34984 ft 464 kts 141°
2026-05-05 13:45 45.69101 15.14914 34991 ft 463 kts 141°
2026-05-05 13:45 45.64306 15.21061 34993 ft 463 kts 141°
2026-05-05 13:46 45.59506 15.27198 34991 ft 463 kts 141°
2026-05-05 13:46 45.54710 15.33325 34990 ft 462 kts 141°
2026-05-05 13:47 45.49960 15.39417 34978 ft 462 kts 141°
2026-05-05 13:47 45.45170 15.45545 34973 ft 463 kts 141°
2026-05-05 13:48 45.40373 15.51672 34973 ft 464 kts 141°
2026-05-05 13:48 45.35567 15.57790 34975 ft 464 kts 141°
2026-05-05 13:49 45.30745 15.63896 34970 ft 464 kts 141°
2026-05-05 13:49 45.25956 15.69959 34967 ft 465 kts 141°
2026-05-05 13:50 45.21123 15.76066 34969 ft 466 kts 141°
2026-05-05 13:50 45.16284 15.82177 34971 ft 466 kts 141°
2026-05-05 13:51 45.11432 15.88282 34976 ft 467 kts 141°
2026-05-05 13:51 45.06607 15.94329 34985 ft 466 kts 141°
2026-05-05 13:52 45.01750 16.00404 34979 ft 466 kts 141°
2026-05-05 13:52 44.96888 16.06478 34974 ft 467 kts 141°
2026-05-05 13:53 44.92011 16.12563 34983 ft 468 kts 141°
2026-05-05 13:53 44.87123 16.18640 34979 ft 468 kts 141°
2026-05-05 13:54 44.82271 16.24656 35004 ft 467 kts 141°
2026-05-05 13:54 44.77389 16.30696 34998 ft 467 kts 142°
2026-05-05 13:55 44.72492 16.36732 34994 ft 468 kts 142°
2026-05-05 13:55 44.67586 16.42768 34996 ft 469 kts 141°
2026-05-05 13:56 44.62707 16.48768 35007 ft 469 kts 141°
2026-05-05 13:56 44.57793 16.54789 35018 ft 469 kts 142°
2026-05-05 13:57 44.52883 16.60795 35011 ft 469 kts 142°
2026-05-05 13:57 44.47955 16.66806 35004 ft 470 kts 142°
2026-05-05 13:58 44.43011 16.72814 35011 ft 471 kts 142°
2026-05-05 13:58 44.38101 16.78783 35033 ft 470 kts 142°
2026-05-05 13:59 44.30701 16.87742 35033 ft 469 kts 142°
2026-05-05 14:00 44.24605 16.95076 35029 ft 470 kts 142°
2026-05-05 14:00 44.18817 17.02053 35034 ft 471 kts 142°
2026-05-05 14:01 44.13904 17.07978 35048 ft 470 kts 142°
2026-05-05 14:01 44.08946 17.13904 35045 ft 470 kts 142°
2026-05-05 14:02 44.03988 17.19842 35031 ft 471 kts 143°
2026-05-05 14:02 43.99010 17.25785 35021 ft 473 kts 142°
2026-05-05 14:03 43.94042 17.31685 35034 ft 474 kts 142°
2026-05-05 14:03 43.89025 17.37619 35045 ft 474 kts 143°
2026-05-05 14:04 43.84008 17.43556 35037 ft 474 kts 143°
2026-05-05 14:04 43.78985 17.49482 35037 ft 475 kts 143°
2026-05-05 14:05 43.73872 17.55157 35041 ft 472 kts 149°
2026-05-05 14:05 43.68426 17.60234 35054 ft 472 kts 149°
2026-05-05 14:06 43.62984 17.65309 35052 ft 472 kts 149°
2026-05-05 14:06 43.57528 17.70375 35054 ft 473 kts 149°
2026-05-05 14:07 43.52092 17.75391 35059 ft 474 kts 149°
2026-05-05 14:07 43.46610 17.80455 35053 ft 475 kts 149°
2026-05-05 14:08 43.41114 17.85527 35067 ft 476 kts 149°
2026-05-05 14:08 43.35602 17.90599 35075 ft 477 kts 149°
2026-05-05 14:09 43.30081 17.95669 35080 ft 477 kts 149°
2026-05-05 14:09 43.24601 18.00684 35083 ft 477 kts 149°
2026-05-05 14:10 43.19079 18.05726 35084 ft 477 kts 149°
2026-05-05 14:10 43.13555 18.10769 35067 ft 477 kts 149°
2026-05-05 14:11 43.08016 18.15807 35062 ft 479 kts 149°
2026-05-05 14:11 43.02499 18.20811 35069 ft 479 kts 149°
2026-05-05 14:12 42.96936 18.25844 35073 ft 480 kts 149°
2026-05-05 14:12 42.91391 18.30857 35114 ft 477 kts 150°
2026-05-05 14:13 42.85871 18.35831 35124 ft 475 kts 150°
2026-05-05 14:13 42.80368 18.40775 35129 ft 474 kts 150°
2026-05-05 14:14 42.74901 18.45683 35127 ft 474 kts 149°
2026-05-05 14:14 42.69399 18.50621 35108 ft 474 kts 150°
2026-05-05 14:15 42.64221 18.56259 35093 ft 479 kts 143°
2026-05-05 14:15 42.59137 18.62131 35084 ft 480 kts 142°
2026-05-05 14:16 42.54048 18.68032 35096 ft 483 kts 142°
2026-05-05 14:16 42.48910 18.73957 35107 ft 492 kts 142°
2026-05-05 14:17 42.43672 18.79973 35109 ft 497 kts 143°
2026-05-05 14:17 42.38384 18.86031 35109 ft 499 kts 143°
2026-05-05 14:18 42.33091 18.92095 35108 ft 499 kts 143°
2026-05-05 14:18 42.27792 18.98156 35108 ft 499 kts 143°
2026-05-05 14:19 42.22489 19.04204 35103 ft 499 kts 143°
2026-05-05 14:19 42.17213 19.10191 35079 ft 500 kts 143°
2026-05-05 14:20 42.11881 19.16230 35079 ft 501 kts 143°
2026-05-05 14:20 42.06531 19.22284 35079 ft 502 kts 143°
2026-05-05 14:21 42.01176 19.28323 35080 ft 503 kts 143°
2026-05-05 14:21 41.95811 19.34368 35072 ft 504 kts 144°
2026-05-05 14:22 41.90463 19.40380 35077 ft 506 kts 144°
2026-05-05 14:22 41.85060 19.46440 35088 ft 507 kts 143°
2026-05-05 14:23 41.79637 19.52504 35086 ft 508 kts 144°
2026-05-05 14:23 41.74204 19.58564 35090 ft 508 kts 144°
2026-05-05 14:24 41.68800 19.64581 35075 ft 510 kts 144°
2026-05-05 14:24 41.63336 19.70654 35076 ft 511 kts 144°
2026-05-05 14:25 41.57859 19.76732 35084 ft 512 kts 144°
2026-05-05 14:25 41.52367 19.82812 35086 ft 513 kts 144°
2026-05-05 14:26 41.46895 19.88842 35076 ft 514 kts 144°
2026-05-05 14:26 41.41367 19.94917 35078 ft 516 kts 144°
2026-05-05 14:27 41.35824 20.01011 35081 ft 517 kts 144°
2026-05-05 14:27 41.30271 20.07104 35076 ft 518 kts 144°
2026-05-05 14:28 41.24741 20.13156 35074 ft 518 kts 144°
2026-05-05 14:28 41.19162 20.19231 35069 ft 519 kts 143°
2026-05-05 14:29 41.13575 20.25304 35071 ft 520 kts 143°
2026-05-05 14:29 41.07973 20.31392 35074 ft 521 kts 143°
2026-05-05 14:30 41.02365 20.37477 35073 ft 521 kts 143°
2026-05-05 14:30 40.96792 20.43501 35082 ft 521 kts 143°
2026-05-05 14:31 40.91175 20.49563 35092 ft 521 kts 143°
2026-05-05 14:31 40.85548 20.55612 35082 ft 522 kts 143°
2026-05-05 14:32 40.79912 20.61660 35069 ft 522 kts 143°
2026-05-05 14:32 40.74276 20.67694 35068 ft 522 kts 143°
2026-05-05 14:33 40.68668 20.73690 35059 ft 523 kts 143°
2026-05-05 14:33 40.63014 20.79726 35050 ft 524 kts 143°
2026-05-05 14:34 40.57344 20.85759 35066 ft 524 kts 143°
2026-05-05 14:34 40.52628 20.90767 35061 ft 524 kts 143°
2026-05-05 14:35 40.46955 20.96787 35063 ft 525 kts 142°
2026-05-05 14:35 40.40538 21.04086 35048 ft 525 kts 139°
2026-05-05 14:36 40.35996 21.09477 35050 ft 526 kts 139°
2026-05-05 14:36 40.30572 21.15817 35057 ft 526 kts 140°
2026-05-05 14:37 40.25073 21.22116 35061 ft 526 kts 140°
2026-05-05 14:37 40.19551 21.28396 35058 ft 525 kts 140°
2026-05-05 14:38 40.14038 21.34678 35049 ft 526 kts 140°
2026-05-05 14:38 40.08568 21.40917 35040 ft 526 kts 140°
2026-05-05 14:39 40.03049 21.47189 35044 ft 526 kts 140°
2026-05-05 14:39 39.97524 21.53455 35047 ft 526 kts 140°
2026-05-05 14:40 39.91998 21.59714 35032 ft 526 kts 140°
2026-05-05 14:40 39.86462 21.65968 35034 ft 527 kts 140°
2026-05-05 14:41 39.80912 21.72213 35036 ft 527 kts 140°
2026-05-05 14:41 39.75398 21.78407 35039 ft 527 kts 140°
2026-05-05 14:42 39.69845 21.84633 35045 ft 527 kts 140°
2026-05-05 14:42 39.64292 21.90840 35035 ft 527 kts 140°
2026-05-05 14:43 39.58745 21.97045 35027 ft 526 kts 140°
2026-05-05 14:43 39.53232 22.03191 35025 ft 526 kts 140°
2026-05-05 14:44 39.47670 22.09364 35021 ft 527 kts 140°
2026-05-05 14:44 39.42105 22.15538 35040 ft 527 kts 140°
2026-05-05 14:45 39.36548 22.21697 35039 ft 526 kts 140°
2026-05-05 14:45 39.31028 22.27800 35040 ft 526 kts 140°
2026-05-05 14:46 39.25473 22.33922 35041 ft 525 kts 140°
2026-05-05 14:46 39.19905 22.40040 35043 ft 525 kts 140°
2026-05-05 14:47 39.14343 22.46143 35047 ft 525 kts 140°
2026-05-05 14:47 39.08784 22.52222 35040 ft 523 kts 140°
2026-05-05 14:48 39.03241 22.58279 35039 ft 522 kts 140°
2026-05-05 14:48 38.97737 22.64273 35039 ft 522 kts 140°
2026-05-05 14:49 38.92195 22.70302 35034 ft 522 kts 140°
2026-05-05 14:49 38.86642 22.76332 35043 ft 523 kts 140°
2026-05-05 14:50 38.81131 22.82302 35061 ft 522 kts 140°
2026-05-05 14:50 38.75587 22.88295 35061 ft 521 kts 140°
2026-05-05 14:51 38.70056 22.94266 35059 ft 520 kts 140°
2026-05-05 14:51 38.64523 23.00225 35057 ft 520 kts 140°
2026-05-05 14:52 38.58987 23.06177 35051 ft 519 kts 140°
2026-05-05 14:52 38.53490 23.12064 35051 ft 519 kts 140°
2026-05-05 14:53 38.47954 23.17993 35036 ft 519 kts 140°
2026-05-05 14:53 38.42418 23.23915 35031 ft 519 kts 140°
2026-05-05 14:54 38.36872 23.29822 35029 ft 519 kts 140°
2026-05-05 14:54 38.31361 23.35677 35031 ft 519 kts 140°
2026-05-05 14:55 38.25812 23.41568 35028 ft 519 kts 140°
2026-05-05 14:55 38.20256 23.47448 35041 ft 520 kts 141°
2026-05-05 14:56 38.14688 23.53322 35023 ft 520 kts 140°
2026-05-05 14:56 38.09117 23.59188 35021 ft 520 kts 140°
2026-05-05 14:57 38.03583 23.65020 35023 ft 521 kts 140°
2026-05-05 14:57 37.98013 23.70876 35013 ft 520 kts 140°
2026-05-05 14:58 37.92436 23.76721 35057 ft 520 kts 141°
2026-05-05 14:58 37.87207 23.82926 35051 ft 518 kts 129°
2026-05-05 14:59 37.82559 23.89901 35048 ft 519 kts 129°
2026-05-05 14:59 37.77902 23.96876 35039 ft 519 kts 129°
2026-05-05 15:00 37.74029 24.02660 35040 ft 519 kts 129°
2026-05-05 15:00 37.68570 24.10805 35045 ft 520 kts 129°
2026-05-05 15:01 37.63921 24.17721 35046 ft 520 kts 129°
2026-05-05 15:01 37.59230 24.24671 35050 ft 520 kts 129°
2026-05-05 15:02 37.54055 24.31031 35050 ft 520 kts 144°
2026-05-05 15:02 37.47979 24.35945 35051 ft 519 kts 149°
2026-05-05 15:03 37.41889 24.40733 35073 ft 520 kts 149°
2026-05-05 15:03 37.35757 24.45560 35056 ft 519 kts 149°
2026-05-05 15:04 37.29626 24.50362 35053 ft 519 kts 149°
2026-05-05 15:04 37.23485 24.55147 35055 ft 519 kts 149°
2026-05-05 15:05 37.14309 24.62277 35044 ft 519 kts 149°
2026-05-05 15:06 37.08175 24.67049 35050 ft 519 kts 149°
2026-05-05 15:06 37.02037 24.71818 35055 ft 519 kts 149°
2026-05-05 15:07 36.95893 24.76573 35059 ft 519 kts 149°
2026-05-05 15:07 36.89791 24.81291 35063 ft 519 kts 149°
2026-05-05 15:08 36.83646 24.86041 35055 ft 520 kts 149°
2026-05-05 15:08 36.77496 24.90792 35060 ft 520 kts 149°
2026-05-05 15:09 36.71342 24.95535 35063 ft 520 kts 149°
2026-05-05 15:09 36.65227 25.00237 35065 ft 520 kts 149°
2026-05-05 15:10 36.59065 25.04956 35062 ft 520 kts 150°
2026-05-05 15:10 36.52896 25.09672 35063 ft 520 kts 150°
2026-05-05 15:11 36.46725 25.14385 35065 ft 521 kts 150°
2026-05-05 15:11 36.40591 25.19057 35068 ft 520 kts 150°
2026-05-05 15:12 36.34417 25.23747 35067 ft 521 kts 150°
2026-05-05 15:12 36.28240 25.28438 35060 ft 520 kts 150°
2026-05-05 15:13 36.22068 25.33124 35086 ft 520 kts 150°
2026-05-05 15:13 36.15928 25.37768 35081 ft 520 kts 150°
2026-05-05 15:14 36.09467 25.41651 35075 ft 515 kts 165°
2026-05-05 15:14 36.02654 25.44383 35062 ft 515 kts 165°
2026-05-05 15:15 35.95842 25.47131 34255 ft 519 kts 165°
2026-05-05 15:15 35.92390 25.48521 33272 ft 524 kts 165°
2026-05-05 15:15 35.88947 25.49889 32297 ft 528 kts 165°
2026-05-05 15:15 35.85441 25.51260 31306 ft 531 kts 165°
2026-05-05 15:16 35.81905 25.52619 30274 ft 534 kts 165°
2026-05-05 15:16 35.78346 25.53971 29085 ft 536 kts 165°
2026-05-05 15:16 35.74770 25.55324 27904 ft 537 kts 165°
2026-05-05 15:16 35.71196 25.56671 26727 ft 538 kts 165°
2026-05-05 15:17 35.67621 25.58014 25530 ft 538 kts 165°
2026-05-05 15:17 35.64053 25.59348 24574 ft 533 kts 165°
2026-05-05 15:17 35.60589 25.60641 23922 ft 522 kts 165°
2026-05-05 15:17 35.57143 25.61928 23078 ft 513 kts 165°
2026-05-05 15:18 35.53755 25.63190 22166 ft 505 kts 165°
2026-05-05 15:18 35.50415 25.64431 21296 ft 498 kts 165°
2026-05-05 15:18 35.47127 25.65657 20476 ft 490 kts 165°
2026-05-05 15:18 35.43891 25.66863 19668 ft 482 kts 165°
2026-05-05 15:19 35.40704 25.68049 18884 ft 475 kts 165°
2026-05-05 15:19 35.37604 25.69202 18063 ft 469 kts 165°
2026-05-05 15:19 35.34504 25.70348 17153 ft 462 kts 165°
2026-05-05 15:19 35.31439 25.71467 16421 ft 458 kts 165°
2026-05-05 15:20 35.28391 25.72571 16163 ft 457 kts 165°
2026-05-05 15:20 35.25348 25.73665 16062 ft 455 kts 165°
2026-05-05 15:20 35.22305 25.74755 16102 ft 456 kts 165°
2026-05-05 15:20 35.19309 25.76032 16086 ft 458 kts 155°
2026-05-05 15:21 35.16671 25.78147 15705 ft 452 kts 139°
2026-05-05 15:21 35.14667 25.80986 14973 ft 445 kts 121°
2026-05-05 15:21 35.13446 25.84391 14266 ft 434 kts 102°
2026-05-05 15:21 35.13139 25.87995 13559 ft 422 kts 83°
2026-05-05 15:22 35.13744 25.91435 12801 ft 409 kts 65°
2026-05-05 15:22 35.15170 25.94355 12063 ft 395 kts 46°
2026-05-05 15:22 35.17227 25.96458 11621 ft 375 kts 27°
2026-05-05 15:22 35.19531 25.97677 11494 ft 349 kts 13°
2026-05-05 15:23 35.21846 25.98090 11365 ft 327 kts 358°
2026-05-05 15:23 35.24030 25.97785 11241 ft 308 kts 345°
2026-05-05 15:23 35.25952 25.96897 11123 ft 293 kts 332°
2026-05-05 15:23 35.27601 25.95533 11000 ft 281 kts 320°
2026-05-05 15:24 35.28918 25.93825 10799 ft 274 kts 308°
2026-05-05 15:24 35.29897 25.91833 10477 ft 274 kts 297°
2026-05-05 15:24 35.30503 25.89622 10144 ft 275 kts 285°
2026-05-05 15:24 35.30717 25.87285 9771 ft 277 kts 276°
2026-05-05 15:25 35.30792 25.84933 9387 ft 276 kts 276°
2026-05-05 15:25 35.30872 25.82588 9102 ft 272 kts 276°
2026-05-05 15:25 35.30948 25.80344 8972 ft 263 kts 276°
2026-05-05 15:25 35.31023 25.78150 8836 ft 254 kts 277°
2026-05-05 15:26 35.31095 25.76022 8712 ft 246 kts 277°
2026-05-05 15:26 35.31167 25.73954 8586 ft 241 kts 277°
2026-05-05 15:26 35.31240 25.71936 8453 ft 234 kts 278°
2026-05-05 15:26 35.31310 25.69975 8325 ft 227 kts 278°
2026-05-05 15:27 35.31374 25.68073 8143 ft 222 kts 277°
2026-05-05 15:27 35.31434 25.66188 7896 ft 221 kts 277°
2026-05-05 15:27 35.31496 25.64334 7615 ft 221 kts 278°
2026-05-05 15:27 35.31561 25.62459 7347 ft 221 kts 278°
2026-05-05 15:28 35.31627 25.60579 7066 ft 221 kts 277°
2026-05-05 15:28 35.31693 25.58698 6794 ft 221 kts 278°
2026-05-05 15:28 35.31775 25.56819 6543 ft 220 kts 278°
2026-05-05 15:28 35.31863 25.54952 6286 ft 220 kts 278°
2026-05-05 15:29 35.31952 25.53086 6017 ft 219 kts 278°
2026-05-05 15:29 35.32041 25.51225 5703 ft 219 kts 277°
2026-05-05 15:29 35.32129 25.49357 5396 ft 220 kts 277°
2026-05-05 15:29 35.32215 25.47490 5077 ft 220 kts 276°
2026-05-05 15:30 35.32300 25.45642 4761 ft 220 kts 276°
2026-05-05 15:30 35.32385 25.43769 4433 ft 221 kts 276°
2026-05-05 15:30 35.32471 25.41889 4109 ft 222 kts 276°
2026-05-05 15:30 35.32556 25.40003 3796 ft 222 kts 275°
2026-05-05 15:31 35.32640 25.38116 3467 ft 222 kts 276°
2026-05-05 15:31 35.32726 25.36207 2903 ft 228 kts 275°
2026-05-05 15:31 35.32829 25.34274 2369 ft 224 kts 277°
2026-05-05 15:31 35.32956 25.32421 2032 ft 211 kts 277°
2026-05-05 15:32 35.33077 25.30742 2007 ft 189 kts 277°
2026-05-05 15:32 35.33182 25.29257 2004 ft 163 kts 277°
2026-05-05 15:32 35.33274 25.27959 1744 ft 145 kts 276°
2026-05-05 15:32 35.33357 25.26803 1503 ft 130 kts 276°
2026-05-05 15:33 35.33434 25.25723 1304 ft 125 kts 279°
2026-05-05 15:33 35.33511 25.24656 1120 ft 126 kts 279°
2026-05-05 15:33 35.33587 25.23590 936 ft 126 kts 279°
2026-05-05 15:33 35.33662 25.22523 746 ft 125 kts 278°
2026-05-05 15:34 35.33734 25.21496 558 ft 122 kts 278°
2026-05-05 15:34 35.33805 25.20463 376 ft 121 kts 278°
2026-05-05 15:34 35.33878 25.19436 212 ft 121 kts 278°
2026-05-05 15:34 35.33948 25.18418 92 ft 111 kts 276°
2026-05-05 15:35 35.34003 25.17644 92 ft 67 kts 275°
2026-05-05 15:35 35.34028 25.17225 90 ft 27 kts 264°
2026-05-05 15:35 35.33993 25.17100 91 ft 7 kts 245°
2026-05-05 15:35 35.33970 25.17045 90 ft 4 kts 232°
2026-05-05 15:36 35.33944 25.17059 91 ft 7 kts 114°
2026-05-05 15:36 35.33937 25.17135 90 ft 10 kts 95°
2026-05-05 15:36 35.33931 25.17228 91 ft 12 kts 95°
2026-05-05 15:36 35.33923 25.17335 91 ft 13 kts 95°
2026-05-05 15:37 35.33915 25.17458 91 ft 16 kts 95°
2026-05-05 15:37 35.33906 25.17586 91 ft 10 kts 95°
2026-05-05 15:37 35.33881 25.17626 91 ft 7 kts 178°
2026-05-05 15:37 35.33824 25.17619 91 ft 9 kts 185°
2026-05-05 15:38 35.33777 25.17614 93 ft 6 kts 185°
2026-05-05 15:38 35.33755 25.17592 92 ft 5 kts 255°
2026-05-05 15:38 35.33759 25.17545 91 ft 3 kts 275°
2026-05-05 15:38 35.33760 25.17537 91 ft 0 kts 275°
2026-05-05 15:39 35.33759 25.17537 91 ft 0 kts 275°
2026-05-05 15:40 35.33760 25.17537 91 ft 0 kts 275°